User: anonymous   Login
Location: Unspecified
(0.0000°N, 0.0000°E)
Time: 09:22:18
(UTC+00:00)
Language:

SES 6 - Orbit

View from above orbital plane
View from above orbital plane
View from above satellite
View from above satellite

Ground track
Ground track

The orbit data is extracted from the following two-line orbital elements,

1 39172U 13026A   14295.19458124 -.00000265  00000-0  00000+0 0  3604
2 39172 000.0238 319.2263 0002039 262.3855 198.5162 01.00271404  5071
Epoch (UTC): 22 October 2014 04:40:11
Eccentricity: 0.0002039
inclination: 0.0238°
perigee height: 35778 km
apogee height: 35795 km
right ascension of ascending node: 319.2263°
argument of perigee: 262.3855°
revolutions per day: 1.00271404
mean anomaly at epoch: 198.5162°
orbit number at epoch: 507

The dashed part of the orbit path shows where the satellite is in the earth's shadow,  

DLR